Flag for U.S.A. Weather past 2 weeks in Wilmington, Delaware, U.S.A.

Now
83 °F

Sunny.


Feels Like: 84 °F
Forecast: 71 / 92 °F
Wind: 5 mph from West

Location: New Castle County Airport

Current Time: Sep 2, 2015 at 8:56:45 PM

Latest Report: Sep 2, 2015 at 7:51 PM


Visibility: 10 mi

Pressure: 29.90 "Hg

Humidity: 51%

Dew point: 63 °F

Location of WilmingtonLocation

Historic Weather in Wilmington — Graph

°F

Wilmington temperature yesterday

Maximum temperature yesterday: 93 °F (at 3:51 PM)
Minimum temperature yesterday: 69 °F (at 5:51 AM)
Average temperature yesterday: 80 °F

Past Weeks' High & Low Weather Summary

 TemperatureHumidityPressure
High93 °F (Sep 1, 3:51 PM)100% (Sep 2, 6:51 AM)30.23 "Hg (Sep 2, 6:51 AM)
Low57 °F (Aug 28, 6:51 AM)29% (Sep 2, 4:51 PM)29.84 "Hg (Aug 24, 4:51 PM)
Average75 °F68%30.03 "Hg
* Reported Aug 18 7:51 PM — Sep 2 7:51 PM, Wilmington, Weather by CustomWeather, © 2015

Note: Actual official high and low records may vary slightly from our data, if they occured in-between our weather recording intervals... More about our weather records

Advertising

Wilmington weather history for previous 24 hours

 ConditionsComfort  
Time TempWeatherWind HumidityBarometerVisibility
7:51 PM
Wed, Sep 2
83 °FSunny.5 mph51%29.90 "Hg10 mi
6:51 PM85 °FSunny.6 mph45%29.90 "Hg9 mi
5:51 PM90 °FSunny.9 mph37%29.92 "Hg10 mi
4:51 PM92 °FSunny.12 mph29%29.92 "Hg10 mi
3:51 PM92 °FSunny.12 mph36%29.93 "Hg10 mi
2:51 PM92 °FSunny.13 mph36%29.95 "Hg10 mi
1:51 PM92 °FScattered clouds.6 mph38%29.97 "Hg10 mi
12:51 PM88 °FSunny.8 mph57%29.99 "Hg8 mi
11:51 AM84 °FSunny.8 mph65%30.01 "Hg7 mi
10:51 AM81 °FSunny.3 mph72%30.03 "Hg5 mi
9:51 AM80 °FHaze.No wind67%30.03 "Hg6 mi
8:51 AM76 °FHaze.No wind85%30.04 "Hg2 mi
7:51 AM72 °FFog.3 mph91%30.05 "Hg2 mi
6:51 AM68 °FFog.5 mph100%30.04 "Hg1 mi
5:51 AM70 °FFog.No wind97%30.03 "Hg2 mi
5:00 AM69 °FFog.3 mph96%30.03 "Hg2 mi
3:51 AM69 °FFog.3 mph96%30.02 "Hg3 mi
2:51 AM70 °FFog.5 mph97%30.03 "Hg2 mi
1:51 AM73 °FFog.3 mph90%30.04 "Hg3 mi
12:51 AM74 °FFog.No wind91%30.05 "Hg5 mi
11:51 PM
Tue, Sep 1
75 °FClear.5 mph85%30.06 "Hg7 mi
10:51 PM76 °FClear.5 mph82%30.05 "Hg9 mi
9:51 PM80 °FClear.No wind58%30.04 "Hg10 mi
8:51 PM81 °FClear.5 mph58%30.02 "Hg10 mi
Weather by CustomWeather, © 2015

See weather overviewHow to use our weather pages